Flag for Benin Weather past 2 weeks in Porto Novo, Benin

Now
82 °F

Passing clouds.


Feels Like: 89 °F
Forecast: 80 / 91 °F
Wind: 12 mph from Southwest

Location: Cotonou Airport

Current Time: Mar 27, 2015 at 5:03:39 AM

Latest Report: Mar 27, 2015 at 4:00 AM


Visibility: 6 mi

Pressure: 29.86 "Hg

Humidity: 79%

Dew point: 75 °F

Location of Porto NovoLocation

Historic Weather in Porto Novo — Graph

°F

Porto Novo temperature yesterday

Maximum temperature yesterday: 88 °F (at 2:00 PM)
Minimum temperature yesterday: 79 °F (at 4:00 AM)
Average temperature yesterday: 83 °F

Past Weeks' High & Low Weather Summary

 TemperatureHumidityPressure
High91 °F (Mar 20, 2:00 PM)100% (Mar 22, 6:00 PM)29.92 "Hg (Mar 22, 6:00 PM)
Low73 °F (Mar 21, 9:00 PM)59% (Mar 18, 1:00 PM)29.65 "Hg (Mar 14, 5:00 PM)
Average84 °F80%29.77 "Hg
* Reported Mar 12 3:00 AM — Mar 27 3:00 AM, Porto Novo, Weather by CustomWeather, © 2015

Note: Actual official high and low records may vary slightly from our data, if they occured in-between our weather recording intervals... More about our weather records

Advertising

Porto Novo weather history for previous 24 hours

 ConditionsComfort  
Time TempWeatherWind HumidityBarometerVisibility
3:00 AM
Fri, Mar 27
82 °FPassing clouds.9 mph84%29.83 "Hg6 mi
2:00 AM82 °FPassing clouds.10 mph84%29.86 "Hg6 mi
1:00 AM82 °FPassing clouds.12 mph84%29.86 "HgN/A
12:00 AM82 °FPassing clouds.8 mph84%29.89 "HgN/A
11:00 PM
Thu, Mar 26
82 °FPassing clouds.9 mph84%29.89 "HgN/A
10:00 PM82 °FPassing clouds.8 mph84%29.86 "HgN/A
9:00 PM82 °FPassing clouds.9 mph84%29.86 "HgN/A
8:00 PM82 °FPassing clouds.9 mph84%29.80 "HgN/A
7:00 PM84 °FPassing clouds.13 mph79%29.80 "HgN/A
6:00 PM86 °FPassing clouds.13 mph75%29.80 "HgN/A
5:00 PM86 °FPassing clouds.12 mph70%29.77 "HgN/A
4:00 PM88 °FScattered clouds.13 mph70%29.80 "HgN/A
3:00 PM86 °FBroken clouds.9 mph75%29.80 "HgN/A
2:00 PM88 °FScattered clouds.9 mph70%29.83 "HgN/A
1:00 PM86 °FScattered clouds.6 mph75%29.86 "HgN/A
12:00 PM86 °FScattered clouds.6 mph75%29.89 "HgN/A
11:00 AM86 °FScattered clouds.1 mph75%29.92 "HgN/A
10:00 AM84 °FScattered clouds.5 mph79%29.92 "HgN/A
9:00 AM81 °FScattered clouds.5 mph84%29.89 "Hg5 mi
8:00 AM79 °FScattered clouds.5 mph89%29.86 "Hg4 mi
7:00 AM79 °FBroken clouds.3 mph89%29.86 "Hg5 mi
6:00 AM79 °FLight rain. Passing clouds.2 mph89%29.83 "Hg5 mi
5:00 AM79 °FLight rain. Passing clouds.No wind89%29.80 "Hg5 mi
Weather by CustomWeather, © 2015

See weather overviewHow to use our weather pages